| time (UTC) | temp F | wind direction | speed MPH | gust MPH | rain 1hr in | rain 24hr in | rain mn in | humidity % | barometer mb |
| 20260905150918 | 83 | 288 | 1.0 | 2.0 | 0.00 | 0.00 | 0.00 | 86 | 1016.1 |
| 20260905150418 | 84 | 310 | 1.0 | 1.0 | 0.00 | 0.00 | 0.00 | 85 | 1016.0 |
| 20260905145915 | 84 | 308 | 1.0 | 1.0 | 0.00 | 0.00 | 0.00 | 85 | 1015.9 |
| 20260905145410 | 84 | 290 | 0.0 | 1.0 | 0.00 | 0.00 | 0.00 | 83 | 1016.0 |
| 20260905144909 | 84 | 295 | 0.0 | 1.0 | 0.00 | 0.00 | 0.00 | 84 | 1015.8 |
| 20260905144359 | 83 | 286 | 1.0 | 1.0 | 0.00 | 0.00 | 0.00 | 83 | 1015.5 |
| 20260905143857 | 82 | 310 | 0.0 | 1.0 | 0.00 | 0.00 | 0.00 | 87 | 1015.7 |
| 20260905143352 | 82 | 316 | 2.0 | 2.0 | 0.00 | 0.00 | 0.00 | 87 | 1015.7 |
| 20260905142852 | 82 | 297 | 0.0 | 0.0 | 0.00 | 0.00 | 0.00 | 88 | 1015.9 |
| 20260905142350 | 82 | 296 | 0.0 | 1.0 | 0.00 | 0.00 | 0.00 | 89 | 1015.8 |
| 20260905141847 | 81 | 273 | 0.0 | 0.0 | 0.00 | 0.00 | 0.00 | 89 | 1015.7 |
| 20260905141342 | 81 | 272 | 0.0 | 1.0 | 0.00 | 0.00 | 0.00 | 89 | 1015.7 |
| 20260905140837 | 80 | 269 | 1.0 | 2.0 | 0.00 | 0.00 | 0.00 | 90 | 1015.4 |
| 20260905140332 | 80 | 269 | 1.0 | 1.0 | 0.00 | 0.00 | 0.00 | 92 | 1015.5 |
| 20260905135830 | 80 | 272 | 0.0 | 2.0 | 0.00 | 0.00 | 0.00 | 93 | 1015.6 |
| 20260905135326 | 80 | 274 | 0.0 | 1.0 | 0.00 | 0.00 | 0.00 | 92 | 1015.4 |
| 20260905134821 | 79 | 277 | 0.0 | 1.0 | 0.00 | 0.00 | 0.00 | 91 | 1015.4 |
| 20260905134314 | 79 | 281 | 0.0 | 1.0 | 0.00 | 0.00 | 0.00 | 93 | 1015.6 |
| 20260905133809 | 79 | 274 | 1.0 | 1.0 | 0.00 | 0.00 | 0.00 | 93 | 1015.3 |
| 20260905133305 | 79 | 279 | 0.0 | 1.0 | 0.00 | 0.00 | 0.00 | 93 | 1015.2 |
| 20260905132803 | 79 | 258 | 1.0 | 1.0 | 0.00 | 0.00 | 0.00 | 94 | 1015.2 |
| 20260905132259 | 79 | 275 | 1.0 | 2.0 | 0.00 | 0.00 | 0.00 | 94 | 1015.3 |
| 20260905131754 | 78 | 271 | 1.0 | 1.0 | 0.00 | 0.00 | 0.00 | 93 | 1015.3 |
| 20260905131249 | 80 | 272 | 1.0 | 1.0 | 0.00 | 0.00 | 0.00 | 91 | 1015.0 |
| 20260905130744 | 79 | 274 | 0.0 | 1.0 | 0.00 | 0.00 | 0.00 | 92 | 1015.1 |
| 20260905130243 | 78 | 216 | 2.0 | 2.0 | 0.00 | 0.00 | 0.00 | 93 | 1015.1 |
| 20260905125738 | 78 | 251 | 2.0 | 2.0 | 0.00 | 0.00 | 0.00 | 94 | 1015.2 |
| 20260905125233 | 77 | 278 | 0.0 | 1.0 | 0.00 | 0.00 | 0.00 | 95 | 1015.1 |
| 20260905124730 | 75 | 279 | 0.0 | 0.0 | 0.00 | 0.00 | 0.00 | 97 | 1014.9 |
| 20260905124226 | 75 | 279 | 0.0 | 0.0 | 0.00 | 0.00 | 0.00 | 98 | 1015.2 |
| 20260905123725 | 74 | 228 | 1.0 | 2.0 | 0.00 | 0.00 | 0.00 | 99 | 1014.9 |
| 20260905123223 | 74 | 262 | 0.0 | 0.0 | 0.00 | 0.00 | 0.00 | 99 | 1015.1 |
| 20260905122722 | 73 | 262 | 0.0 | 0.0 | 0.00 | 0.00 | 0.00 | 99 | 1015.0 |
| 20260905122217 | 73 | 262 | 0.0 | 0.0 | 0.00 | 0.00 | 0.00 | 99 | 1014.8 |
| 20260905121712 | 73 | 262 | 0.0 | 0.0 | 0.00 | 0.00 | 0.00 | 99 | 1014.8 |
| 20260905121209 | 73 | 262 | 0.0 | 0.0 | 0.00 | 0.00 | 0.00 | 99 | 1014.8 |
| 20260905120707 | 73 | 262 | 0.0 | 0.0 | 0.00 | 0.00 | 0.00 | 99 | 1014.8 |
| 20260905120201 | 72 | 263 | 0.0 | 0.0 | 0.00 | 0.00 | 0.00 | 99 | 1014.6 |
| 20260905115701 | 73 | 262 | 0.0 | 0.0 | 0.00 | 0.00 | 0.00 | 99 | 1014.4 |
| 20260905115151 | 73 | 262 | 0.0 | 0.0 | 0.00 | 0.00 | 0.00 | 99 | 1014.4 |
| 20260905114650 | 73 | 262 | 0.0 | 0.0 | 0.00 | 0.00 | 0.00 | 99 | 1014.3 |
| 20260905114148 | 73 | 262 | 0.0 | 0.0 | 0.00 | 0.00 | 0.00 | 99 | 1014.2 |
| 20260905113643 | 73 | 262 | 0.0 | 0.0 | 0.00 | 0.00 | 0.00 | 99 | 1014.5 |
| 20260905113138 | 73 | 243 | 2.0 | 2.0 | 0.00 | 0.00 | 0.00 | 99 | 1014.2 |
| 20260905112633 | 73 | 261 | 1.0 | 1.0 | 0.00 | 0.00 | 0.00 | 99 | 1014.3 |
| 20260905112130 | 73 | 261 | 0.0 | 0.0 | 0.00 | 0.00 | 0.00 | 99 | 1014.4 |
| 20260905111629 | 73 | 261 | 0.0 | 0.0 | 0.00 | 0.00 | 0.00 | 99 | 1014.5 |
| 20260905111128 | 73 | 261 | 0.0 | 1.0 | 0.00 | 0.00 | 0.00 | 99 | 1014.5 |
| 20260905110628 | 73 | 261 | 0.0 | 0.0 | 0.00 | 0.00 | 0.00 | 99 | 1014.4 |
| 20260905110123 | 73 | 261 | 0.0 | 0.0 | 0.00 | 0.00 | 0.00 | 99 | 1014.3 |
| 20260905105618 | 73 | 261 | 0.0 | 0.0 | 0.00 | 0.00 | 0.00 | 99 | 1014.4 |
| 20260905105117 | 73 | 261 | 0.0 | 0.0 | 0.00 | 0.00 | 0.00 | 99 | 1014.2 |
| 20260905104612 | 73 | 261 | 0.0 | 0.0 | 0.00 | 0.00 | 0.00 | 99 | 1014.2 |
| 20260905104107 | 74 | 261 | 0.0 | 0.0 | 0.00 | 0.00 | 0.00 | 99 | 1014.3 |
| 20260905103603 | 74 | 261 | 0.0 | 0.0 | 0.00 | 0.00 | 0.00 | 99 | 1014.3 |
| 20260905103058 | 74 | 261 | 0.0 | 0.0 | 0.00 | 0.00 | 0.00 | 98 | 1014.2 |
| 20260905102548 | 74 | 261 | 0.0 | 0.0 | 0.00 | 0.00 | 0.00 | 98 | 1014.1 |
| 20260905102045 | 74 | 261 | 0.0 | 0.0 | 0.00 | 0.00 | 0.00 | 98 | 1014.1 |
| 20260905101543 | 75 | 261 | 0.0 | 0.0 | 0.00 | 0.00 | 0.00 | 98 | 1014.0 |
| 20260905101041 | 75 | 261 | 0.0 | 1.0 | 0.00 | 0.00 | 0.00 | 98 | 1014.0 |
| 20260905100538 | 74 | 261 | 0.0 | 0.0 | 0.00 | 0.00 | 0.00 | 98 | 1013.6 |
| 20260905100037 | 75 | 261 | 0.0 | 0.0 | 0.00 | 0.00 | 0.00 | 98 | 1013.7 |
| 20260905095531 | 74 | 261 | 0.0 | 0.0 | 0.00 | 0.00 | 0.00 | 97 | 1014.0 |
| 20260905095026 | 75 | 261 | 0.0 | 0.0 | 0.00 | 0.00 | 0.00 | 97 | 1014.0 |
| 20260905094516 | 75 | 261 | 0.0 | 0.0 | 0.00 | 0.00 | 0.00 | 97 | 1013.6 |
| 20260905094015 | 75 | 261 | 1.0 | 1.0 | 0.00 | 0.00 | 0.00 | 97 | 1013.9 |
| 20260905093510 | 75 | 261 | 1.0 | 1.0 | 0.00 | 0.00 | 0.00 | 96 | 1013.7 |
| 20260905093007 | 76 | 261 | 0.0 | 1.0 | 0.00 | 0.00 | 0.00 | 95 | 1013.9 |
| 20260905092506 | 76 | 261 | 0.0 | 0.0 | 0.00 | 0.00 | 0.00 | 95 | 1013.7 |
| 20260905092002 | 76 | 261 | 1.0 | 1.0 | 0.00 | 0.00 | 0.00 | 95 | 1013.9 |
| 20260905091501 | 76 | 261 | 1.0 | 2.0 | 0.00 | 0.00 | 0.00 | 95 | 1013.9 |
| 20260905090956 | 76 | 262 | 1.0 | 1.0 | 0.00 | 0.00 | 0.00 | 94 | 1013.9 |
| 20260905090451 | 76 | 262 | 1.0 | 2.0 | 0.00 | 0.00 | 0.00 | 95 | 1013.7 |
| 20260905085950 | 76 | 262 | 0.0 | 1.0 | 0.00 | 0.00 | 0.00 | 95 | 1014.0 |
| 20260905085450 | 76 | 262 | 0.0 | 1.0 | 0.00 | 0.00 | 0.00 | 96 | 1014.1 |
| 20260905084946 | 76 | 262 | 0.0 | 0.0 | 0.00 | 0.00 | 0.00 | 96 | 1014.2 |
| 20260905084445 | 76 | 262 | 0.0 | 1.0 | 0.00 | 0.00 | 0.00 | 96 | 1014.1 |
| 20260905083939 | 76 | 262 | 0.0 | 1.0 | 0.00 | 0.00 | 0.00 | 96 | 1014.3 |
| 20260905083436 | 76 | 262 | 1.0 | 1.0 | 0.00 | 0.00 | 0.00 | 96 | 1014.2 |
| 20260905082931 | 76 | 262 | 0.0 | 0.0 | 0.00 | 0.00 | 0.00 | 96 | 1014.1 |
| 20260905082427 | 76 | 262 | 0.0 | 0.0 | 0.00 | 0.00 | 0.00 | 96 | 1014.2 |
| 20260905081922 | 76 | 262 | 0.0 | 0.0 | 0.00 | 0.00 | 0.00 | 96 | 1014.2 |
| 20260905081417 | 76 | 262 | 1.0 | 1.0 | 0.00 | 0.00 | 0.00 | 95 | 1014.2 |
| 20260905080915 | 76 | 262 | 1.0 | 1.0 | 0.00 | 0.00 | 0.00 | 95 | 1014.3 |
| 20260905080410 | 76 | 262 | 1.0 | 1.0 | 0.00 | 0.00 | 0.00 | 95 | 1014.4 |
| 20260905075909 | 76 | 262 | 1.0 | 2.0 | 0.00 | 0.00 | 0.00 | 96 | 1014.3 |
| 20260905075409 | 76 | 262 | 1.0 | 1.0 | 0.00 | 0.00 | 0.00 | 96 | 1014.2 |
| 20260905074908 | 76 | 262 | 0.0 | 0.0 | 0.00 | 0.00 | 0.00 | 97 | 1014.5 |
| 20260905074358 | 76 | 262 | 0.0 | 0.0 | 0.00 | 0.00 | 0.00 | 97 | 1014.3 |
| 20260905073854 | 76 | 262 | 0.0 | 0.0 | 0.00 | 0.00 | 0.00 | 96 | 1014.3 |
| 20260905073349 | 76 | 262 | 0.0 | 0.0 | 0.00 | 0.00 | 0.00 | 96 | 1014.5 |
| 20260905072844 | 76 | 262 | 1.0 | 1.0 | 0.00 | 0.00 | 0.00 | 96 | 1014.4 |
| 20260905072338 | 76 | 262 | 0.0 | 0.0 | 0.00 | 0.00 | 0.00 | 97 | 1014.2 |
| 20260905071835 | 76 | 262 | 0.0 | 0.0 | 0.00 | 0.00 | 0.00 | 97 | 1014.2 |
| 20260905071332 | 76 | 262 | 0.0 | 0.0 | 0.00 | 0.00 | 0.00 | 97 | 1014.4 |
| 20260905070831 | 76 | 262 | 0.0 | 0.0 | 0.00 | 0.00 | 0.00 | 96 | 1014.3 |
| 20260905070328 | 76 | 262 | 0.0 | 0.0 | 0.00 | 0.00 | 0.00 | 96 | 1014.2 |
| 20260905065826 | 77 | 262 | 0.0 | 0.0 | 0.00 | 0.00 | 0.00 | 96 | 1014.2 |
| 20260905065325 | 77 | 262 | 0.0 | 0.0 | 0.00 | 0.00 | 0.00 | 96 | 1014.3 |
| 20260905064820 | 77 | 262 | 0.0 | 0.0 | 0.00 | 0.00 | 0.00 | 96 | 1014.4 |
| 20260905064317 | 77 | 262 | 0.0 | 0.0 | 0.00 | 0.00 | 0.00 | 96 | 1014.2 |
| 20260905063815 | 77 | 262 | 1.0 | 1.0 | 0.00 | 0.00 | 0.00 | 96 | 1014.2 |
| 20260905063311 | 76 | 262 | 0.0 | 0.0 | 0.00 | 0.00 | 0.00 | 97 | 1014.3 |
| 20260905062807 | 76 | 262 | 0.0 | 0.0 | 0.00 | 0.00 | 0.00 | 97 | 1014.4 |
| 20260905062307 | 76 | 262 | 0.0 | 0.0 | 0.00 | 0.00 | 0.00 | 97 | 1014.2 |
| 20260905061801 | 76 | 262 | 0.0 | 0.0 | 0.00 | 0.00 | 0.00 | 97 | 1014.4 |
| 20260905061255 | 76 | 262 | 0.0 | 0.0 | 0.00 | 0.00 | 0.00 | 97 | 1014.3 |
| 20260905060750 | 76 | 262 | 0.0 | 0.0 | 0.00 | 0.00 | 0.00 | 96 | 1014.4 |
| 20260905060248 | 76 | 262 | 0.0 | 0.0 | 0.00 | 0.00 | 0.00 | 96 | 1014.2 |
| 20260905055746 | 77 | 262 | 0.0 | 0.0 | 0.00 | 0.00 | 0.00 | 96 | 1014.2 |
| 20260905055241 | 77 | 262 | 0.0 | 0.0 | 0.00 | 0.00 | 0.00 | 96 | 1014.2 |
| 20260905054736 | 77 | 262 | 0.0 | 0.0 | 0.00 | 0.00 | 0.00 | 95 | 1014.2 |
| 20260905054233 | 77 | 262 | 0.0 | 0.0 | 0.00 | 0.00 | 0.00 | 95 | 1014.1 |
| 20260905053731 | 77 | 262 | 0.0 | 0.0 | 0.00 | 0.00 | 0.00 | 94 | 1014.1 |
| 20260905053227 | 78 | 262 | 0.0 | 0.0 | 0.00 | 0.00 | 0.00 | 94 | 1014.2 |
| 20260905052726 | 78 | 262 | 0.0 | 0.0 | 0.00 | 0.00 | 0.00 | 93 | 1014.1 |
| 20260905052222 | 78 | 262 | 1.0 | 1.0 | 0.00 | 0.00 | 0.00 | 93 | 1014.1 |
| 20260905051721 | 78 | 262 | 1.0 | 1.0 | 0.00 | 0.00 | 0.00 | 94 | 1014.0 |
| 20260905051218 | 78 | 262 | 0.0 | 0.0 | 0.00 | 0.00 | 0.00 | 94 | 1014.1 |
| 20260905050714 | 78 | 262 | 0.0 | 0.0 | 0.00 | 0.00 | 0.00 | 94 | 1014.2 |
| 20260905050211 | 78 | 262 | 0.0 | 0.0 | 0.00 | 0.00 | 0.00 | 94 | 1014.0 |
| 20260905045710 | 78 | 262 | 0.0 | 0.0 | 0.00 | 0.03 | 0.03 | 94 | 1014.1 |
| 20260905045206 | 78 | 262 | 0.0 | 0.0 | 0.00 | 0.03 | 0.03 | 94 | 1013.9 |
| 20260905044700 | 78 | 262 | 0.0 | 0.0 | 0.00 | 0.03 | 0.03 | 93 | 1013.7 |
| 20260905044155 | 79 | 262 | 0.0 | 0.0 | 0.00 | 0.03 | 0.03 | 93 | 1014.0 |
| 20260905043654 | 79 | 262 | 0.0 | 0.0 | 0.00 | 0.03 | 0.03 | 92 | 1013.9 |
| 20260905043149 | 80 | 262 | 0.0 | 0.0 | 0.00 | 0.03 | 0.03 | 91 | 1013.7 |
| 20260905042649 | 80 | 257 | 1.0 | 2.0 | 0.00 | 0.03 | 0.03 | 91 | 1013.9 |
| 20260905042148 | 80 | 263 | 0.0 | 0.0 | 0.00 | 0.03 | 0.03 | 91 | 1013.6 |
| 20260905041644 | 80 | 263 | 0.0 | 1.0 | 0.00 | 0.03 | 0.03 | 91 | 1013.5 |
| 20260905041139 | 80 | 263 | 1.0 | 1.0 | 0.00 | 0.03 | 0.03 | 91 | 1014.0 |
| 20260905040634 | 80 | 263 | 0.0 | 1.0 | 0.00 | 0.03 | 0.03 | 91 | 1013.9 |
| 20260905040127 | 80 | 263 | 1.0 | 1.0 | 0.00 | 0.03 | 0.03 | 91 | 1013.6 |
| 20260905035622 | 80 | 260 | 1.0 | 2.0 | 0.00 | 0.03 | 0.03 | 91 | 1013.7 |
| 20260905035119 | 80 | 244 | 1.0 | 2.0 | 0.00 | 0.03 | 0.03 | 91 | 1013.7 |
| 20260905034614 | 81 | 268 | 0.0 | 1.0 | 0.00 | 0.03 | 0.03 | 91 | 1013.9 |
| 20260905034108 | 81 | 257 | 1.0 | 2.0 | 0.00 | 0.03 | 0.03 | 91 | 1013.9 |
| 20260905033608 | 81 | 275 | 1.0 | 2.0 | 0.00 | 0.03 | 0.03 | 91 | 1013.7 |
| 20260905033104 | 81 | 267 | 1.0 | 1.0 | 0.00 | 0.03 | 0.03 | 90 | 1013.7 |
| 20260905032603 | 81 | 269 | 0.0 | 1.0 | 0.00 | 0.03 | 0.03 | 90 | 1013.6 |
| 20260905032058 | 81 | 277 | 0.0 | 1.0 | 0.00 | 0.03 | 0.03 | 90 | 1013.9 |
| 20260905031554 | 81 | 272 | 0.0 | 1.0 | 0.00 | 0.03 | 0.03 | 89 | 1013.7 |
| 20260905031054 | 82 | 253 | 1.0 | 2.0 | 0.00 | 0.03 | 0.03 | 89 | 1013.9 |
| 20260905030549 | 82 | 230 | 2.0 | 2.0 | 0.00 | 0.03 | 0.03 | 88 | 1013.7 |
| 20260905030043 | 82 | 212 | 2.0 | 2.0 | 0.00 | 0.03 | 0.03 | 88 | 1013.9 |
| 20260905025538 | 82 | 226 | 2.0 | 2.0 | 0.00 | 0.03 | 0.03 | 88 | 1013.7 |
| 20260905025035 | 82 | 276 | 0.0 | 1.0 | 0.00 | 0.03 | 0.03 | 88 | 1013.7 |
| 20260905024530 | 82 | 284 | 0.0 | 1.0 | 0.00 | 0.03 | 0.03 | 88 | 1013.5 |
| 20260905024026 | 82 | 274 | 1.0 | 2.0 | 0.00 | 0.03 | 0.03 | 88 | 1013.7 |
| 20260905023521 | 82 | 252 | 1.0 | 2.0 | 0.00 | 0.03 | 0.03 | 87 | 1013.7 |
| 20260905023021 | 82 | 267 | 1.0 | 2.0 | 0.00 | 0.03 | 0.03 | 87 | 1013.5 |
| 20260905022515 | 83 | 269 | 0.0 | 1.0 | 0.00 | 0.03 | 0.03 | 86 | 1013.7 |
| 20260905022010 | 83 | 269 | 0.0 | 1.0 | 0.00 | 0.03 | 0.03 | 85 | 1013.5 |
| 20260905021510 | 83 | 270 | 0.0 | 1.0 | 0.00 | 0.03 | 0.03 | 84 | 1013.6 |
| 20260905021005 | 83 | 269 | 0.0 | 1.0 | 0.00 | 0.03 | 0.03 | 84 | 1013.4 |
| 20260905020459 | 83 | 269 | 0.0 | 1.0 | 0.00 | 0.03 | 0.03 | 85 | 1013.6 |
| 20260905015954 | 84 | 271 | 1.0 | 1.0 | 0.00 | 0.03 | 0.03 | 85 | 1013.3 |
| 20260905015452 | 84 | 272 | 0.0 | 0.0 | 0.00 | 0.03 | 0.03 | 85 | 1013.5 |
| 20260905014952 | 84 | 272 | 0.0 | 0.0 | 0.00 | 0.03 | 0.03 | 85 | 1013.3 |
| 20260905014447 | 84 | 272 | 0.0 | 0.0 | 0.00 | 0.03 | 0.03 | 85 | 1013.2 |
| 20260905013942 | 84 | 272 | 0.0 | 0.0 | 0.00 | 0.03 | 0.03 | 85 | 1013.2 |
| 20260905013439 | 84 | 272 | 0.0 | 0.0 | 0.00 | 0.03 | 0.03 | 86 | 1013.0 |
| 20260905012933 | 84 | 272 | 0.0 | 0.0 | 0.00 | 0.03 | 0.03 | 85 | 1013.0 |
| 20260905012428 | 84 | 272 | 0.0 | 0.0 | 0.00 | 0.03 | 0.03 | 84 | 1012.9 |
| 20260905011925 | 84 | 272 | 0.0 | 0.0 | 0.00 | 0.03 | 0.03 | 84 | 1012.8 |
| 20260905011421 | 84 | 272 | 0.0 | 0.0 | 0.00 | 0.03 | 0.03 | 83 | 1012.8 |
| 20260905010916 | 84 | 272 | 0.0 | 0.0 | 0.00 | 0.03 | 0.03 | 83 | 1012.7 |
| 20260905010410 | 84 | 272 | 0.0 | 0.0 | 0.00 | 0.03 | 0.03 | 83 | 1012.7 |
| 20260905005901 | 84 | 272 | 0.0 | 0.0 | 0.00 | 0.03 | 0.03 | 83 | 1012.8 |
| 20260905005357 | 85 | 272 | 0.0 | 0.0 | 0.00 | 0.03 | 0.03 | 85 | 1012.6 |
| 20260905004851 | 85 | 272 | 0.0 | 0.0 | 0.00 | 0.03 | 0.03 | 85 | 1012.6 |
| 20260905004346 | 85 | 272 | 0.0 | 0.0 | 0.00 | 0.03 | 0.03 | 84 | 1012.8 |
| 20260905003841 | 86 | 272 | 0.0 | 0.0 | 0.00 | 0.03 | 0.03 | 84 | 1012.6 |
| 20260905003337 | 86 | 272 | 0.0 | 0.0 | 0.00 | 0.03 | 0.03 | 84 | 1012.6 |
| 20260905002833 | 86 | 272 | 0.0 | 0.0 | 0.00 | 0.03 | 0.03 | 84 | 1012.8 |
| 20260905002332 | 87 | 272 | 0.0 | 0.0 | 0.00 | 0.03 | 0.03 | 84 | 1012.9 |
| 20260905001827 | 87 | 272 | 0.0 | 0.0 | 0.00 | 0.03 | 0.03 | 83 | 1012.7 |
| 20260905001326 | 87 | 275 | 1.0 | 1.0 | 0.00 | 0.03 | 0.03 | 83 | 1012.6 |
| 20260905000822 | 88 | 277 | 0.0 | 0.0 | 0.00 | 0.03 | 0.03 | 83 | 1012.8 |
| 20260905000318 | 88 | 277 | 0.0 | 0.0 | 0.00 | 0.03 | 0.03 | 82 | 1012.8 |
| 20260904235812 | 88 | 277 | 0.0 | 0.0 | 0.00 | 0.03 | 0.03 | 81 | 1012.7 |
| 20260904235308 | 89 | 277 | 0.0 | 0.0 | 0.00 | 0.03 | 0.03 | 81 | 1012.7 |
| 20260904234803 | 89 | 277 | 0.0 | 0.0 | 0.00 | 0.03 | 0.03 | 80 | 1012.7 |
| 20260904234258 | 90 | 277 | 0.0 | 0.0 | 0.00 | 0.03 | 0.03 | 79 | 1012.6 |
| 20260904233754 | 90 | 277 | 0.0 | 0.0 | 0.00 | 0.03 | 0.03 | 79 | 1012.6 |
| 20260904233250 | 90 | 240 | 2.0 | 2.0 | 0.00 | 0.03 | 0.03 | 78 | 1012.6 |
| 20260904232746 | 90 | 260 | 1.0 | 2.0 | 0.00 | 0.03 | 0.03 | 76 | 1012.7 |
| 20260904232242 | 90 | 270 | 1.0 | 2.0 | 0.00 | 0.03 | 0.03 | 76 | 1012.5 |
| 20260904231737 | 91 | 257 | 2.0 | 2.0 | 0.00 | 0.03 | 0.03 | 75 | 1012.5 |
| 20260904231233 | 91 | 274 | 1.0 | 1.0 | 0.00 | 0.03 | 0.03 | 73 | 1012.5 |
| 20260904230732 | 92 | 276 | 0.0 | 0.0 | 0.00 | 0.03 | 0.03 | 78 | 1012.5 |
| 20260904230226 | 91 | 276 | 0.0 | 1.0 | 0.00 | 0.03 | 0.03 | 77 | 1012.5 |
| 20260904225726 | 91 | 272 | 0.0 | 2.0 | 0.00 | 0.03 | 0.03 | 72 | 1012.5 |
| 20260904225220 | 91 | 282 | 1.0 | 1.0 | 0.00 | 0.03 | 0.03 | 77 | 1012.4 |
| 20260904224719 | 91 | 247 | 1.0 | 2.0 | 0.00 | 0.03 | 0.03 | 76 | 1012.4 |
| 20260904224214 | 91 | 276 | 1.0 | 1.0 | 0.00 | 0.03 | 0.03 | 80 | 1012.5 |
| 20260904223713 | 90 | 270 | 2.0 | 2.0 | 0.00 | 0.03 | 0.03 | 79 | 1012.4 |
| 20260904223209 | 89 | 269 | 1.0 | 1.0 | 0.00 | 0.03 | 0.03 | 80 | 1012.5 |
| 20260904222704 | 87 | 303 | 0.0 | 0.0 | 0.00 | 0.03 | 0.03 | 88 | 1012.2 |
| 20260904222200 | 86 | 303 | 0.0 | 0.0 | 0.00 | 0.03 | 0.03 | 91 | 1012.3 |
| 20260904221659 | 86 | 303 | 0.0 | 0.0 | 0.00 | 0.03 | 0.03 | 90 | 1012.4 |
| 20260904221154 | 86 | 303 | 0.0 | 0.0 | 0.12 | 0.03 | 0.03 | 85 | 1012.4 |
| 20260904220649 | 88 | 303 | 0.0 | 1.0 | 0.17 | 0.03 | 0.03 | 84 | 1012.4 |
| 20260904220144 | 89 | 280 | 0.0 | 1.0 | 0.05 | 0.01 | 0.01 | 79 | 1012.3 |
| 20260904215638 | 89 | 260 | 1.0 | 2.0 | 0.00 | 0.00 | 0.00 | 73 | 1012.3 |
| 20260904215135 | 90 | 221 | 3.0 | 5.0 | 0.00 | 0.00 | 0.00 | 73 | 1012.4 |
| 20260904214635 | 90 | 225 | 3.0 | 5.0 | 0.00 | 0.00 | 0.00 | 71 | 1012.1 |
| 20260904214130 | 90 | 236 | 3.0 | 5.0 | 0.00 | 0.00 | 0.00 | 71 | 1012.4 |
| 20260904213628 | 90 | 236 | 3.0 | 3.0 | 0.00 | 0.00 | 0.00 | 72 | 1012.5 |
| 20260904213125 | 91 | 254 | 3.0 | 5.0 | 0.00 | 0.00 | 0.00 | 71 | 1012.2 |
| 20260904212620 | 89 | 244 | 1.0 | 3.0 | 0.00 | 0.00 | 0.00 | 76 | 1012.3 |
| 20260904212115 | 89 | 241 | 2.0 | 2.0 | 0.00 | 0.00 | 0.00 | 77 | 1012.5 |
| 20260904211614 | 90 | 248 | 1.0 | 2.0 | 0.00 | 0.00 | 0.00 | 76 | 1012.5 |
| 20260904211110 | 90 | 263 | 1.0 | 2.0 | 0.00 | 0.00 | 0.00 | 75 | 1012.4 |
| 20260904210609 | 91 | 277 | 1.0 | 2.0 | 0.00 | 0.00 | 0.00 | 72 | 1012.6 |
| 20260904210100 | 93 | 229 | 4.0 | 6.0 | 0.00 | 0.00 | 0.00 | 61 | 1012.4 |
| 20260904205555 | 93 | 234 | 3.0 | 8.0 | 0.00 | 0.00 | 0.00 | 60 | 1012.4 |
| 20260904205051 | 94 | 244 | 4.0 | 8.0 | 0.00 | 0.00 | 0.00 | 58 | 1012.6 |
| 20260904204547 | 96 | 216 | 4.0 | 9.0 | 0.00 | 0.00 | 0.00 | 58 | 1012.6 |
| 20260904204043 | 96 | 205 | 3.0 | 7.0 | 0.00 | 0.00 | 0.00 | 56 | 1012.5 |
| 20260904203538 | 96 | 196 | 5.0 | 9.0 | 0.00 | 0.00 | 0.00 | 56 | 1012.4 |
| 20260904203035 | 96 | 213 | 5.0 | 7.0 | 0.00 | 0.00 | 0.00 | 55 | 1012.5 |
| 20260904202530 | 95 | 182 | 5.0 | 9.0 | 0.00 | 0.00 | 0.00 | 56 | 1012.5 |
| 20260904202026 | 96 | 234 | 7.0 | 10.0 | 0.00 | 0.00 | 0.00 | 56 | 1012.7 |
| 20260904201521 | 96 | 200 | 3.0 | 6.0 | 0.00 | 0.00 | 0.00 | 56 | 1012.7 |
| 20260904201016 | 96 | 251 | 3.0 | 5.0 | 0.00 | 0.00 | 0.00 | 55 | 1012.6 |
| 20260904200514 | 96 | 278 | 3.0 | 11.0 | 0.00 | 0.00 | 0.00 | 58 | 1012.7 |
| 20260904200010 | 95 | 208 | 5.0 | 9.0 | 0.00 | 0.00 | 0.00 | 57 | 1012.9 |
| 20260904195508 | 95 | 201 | 5.0 | 8.0 | 0.00 | 0.00 | 0.00 | 57 | 1012.8 |
| 20260904195008 | 96 | 237 | 5.0 | 7.0 | 0.00 | 0.00 | 0.00 | 56 | 1012.6 |
| 20260904194503 | 95 | 214 | 8.0 | 11.0 | 0.00 | 0.00 | 0.00 | 56 | 1012.5 |
| 20260904193957 | 95 | 188 | 5.0 | 9.0 | 0.00 | 0.00 | 0.00 | 58 | 1012.6 |
| 20260904193452 | 95 | 243 | 6.0 | 9.0 | 0.00 | 0.00 | 0.00 | 56 | 1012.5 |
| 20260904192948 | 95 | 174 | 6.0 | 11.0 | 0.00 | 0.00 | 0.00 | 57 | 1012.7 |
| 20260904192443 | 94 | 202 | 5.0 | 11.0 | 0.00 | 0.00 | 0.00 | 59 | 1012.6 |
| 20260904191940 | 94 | 172 | 5.0 | 8.0 | 0.00 | 0.00 | 0.00 | 59 | 1012.7 |
| 20260904191436 | 95 | 203 | 9.0 | 11.0 | 0.00 | 0.00 | 0.00 | 57 | 1012.6 |
| 20260904190932 | 95 | 199 | 9.0 | 15.0 | 0.00 | 0.00 | 0.00 | 58 | 1012.7 |
| 20260904190426 | 96 | 217 | 8.0 | 9.0 | 0.00 | 0.00 | 0.00 | 59 | 1012.6 |
| 20260904185923 | 95 | 249 | 5.0 | 7.0 | 0.00 | 0.00 | 0.00 | 59 | 1012.8 |
| 20260904185418 | 94 | 168 | 3.0 | 10.0 | 0.00 | 0.00 | 0.00 | 60 | 1012.8 |
| 20260904184913 | 94 | 277 | 8.0 | 9.0 | 0.00 | 0.00 | 0.00 | 59 | 1012.8 |
| 20260904184408 | 93 | 191 | 8.0 | 10.0 | 0.00 | 0.00 | 0.00 | 60 | 1013.0 |
| 20260904183903 | 94 | 221 | 5.0 | 13.0 | 0.00 | 0.00 | 0.00 | 61 | 1013.0 |
| 20260904183358 | 93 | 233 | 3.0 | 8.0 | 0.00 | 0.00 | 0.00 | 62 | 1013.1 |
| 20260904182854 | 94 | 146 | 5.0 | 8.0 | 0.00 | 0.00 | 0.00 | 61 | 1013.1 |
| 20260904182348 | 93 | 244 | 5.0 | 9.0 | 0.00 | 0.00 | 0.00 | 62 | 1013.0 |
| 20260904181843 | 93 | 175 | 7.0 | 8.0 | 0.00 | 0.00 | 0.00 | 61 | 1013.1 |
| 20260904181338 | 94 | 199 | 5.0 | 8.0 | 0.00 | 0.00 | 0.00 | 60 | 1013.0 |
| 20260904180834 | 93 | 286 | 4.0 | 9.0 | 0.00 | 0.00 | 0.00 | 61 | 1013.3 |
| 20260904180329 | 93 | 214 | 10.0 | 11.0 | 0.00 | 0.00 | 0.00 | 62 | 1013.3 |
| 20260904175828 | 93 | 274 | 5.0 | 9.0 | 0.00 | 0.00 | 0.00 | 60 | 1013.1 |
| 20260904175327 | 92 | 193 | 7.0 | 9.0 | 0.00 | 0.00 | 0.00 | 62 | 1013.3 |
| 20260904174827 | 93 | 184 | 7.0 | 9.0 | 0.00 | 0.00 | 0.00 | 64 | 1013.3 |
| 20260904174323 | 92 | 211 | 4.0 | 9.0 | 0.00 | 0.00 | 0.00 | 63 | 1013.1 |
| 20260904173819 | 92 | 218 | 7.0 | 9.0 | 0.00 | 0.00 | 0.00 | 62 | 1013.2 |
| 20260904173314 | 92 | 197 | 6.0 | 9.0 | 0.00 | 0.00 | 0.00 | 64 | 1013.3 |
| 20260904172810 | 92 | 301 | 5.0 | 8.0 | 0.00 | 0.00 | 0.00 | 63 | 1013.3 |
| 20260904172309 | 91 | 214 | 7.0 | 9.0 | 0.00 | 0.00 | 0.00 | 62 | 1013.4 |
| 20260904171804 | 91 | 206 | 5.0 | 10.0 | 0.00 | 0.00 | 0.00 | 63 | 1013.6 |
| 20260904171259 | 91 | 235 | 4.0 | 9.0 | 0.00 | 0.00 | 0.00 | 64 | 1013.5 |
| 20260904170755 | 91 | 215 | 7.0 | 10.0 | 0.00 | 0.00 | 0.00 | 63 | 1013.6 |
| 20260904170251 | 91 | 205 | 7.0 | 9.0 | 0.00 | 0.00 | 0.00 | 63 | 1013.5 |
| 20260904165750 | 90 | 186 | 6.0 | 9.0 | 0.00 | 0.00 | 0.00 | 64 | 1013.5 |
| 20260904165244 | 90 | 215 | 8.0 | 11.0 | 0.00 | 0.00 | 0.00 | 64 | 1013.6 |
| 20260904164738 | 91 | 228 | 7.0 | 9.0 | 0.00 | 0.00 | 0.00 | 64 | 1013.7 |
| 20260904164234 | 90 | 221 | 7.0 | 11.0 | 0.00 | 0.00 | 0.00 | 65 | 1013.7 |
| 20260904163730 | 89 | 219 | 5.0 | 9.0 | 0.00 | 0.00 | 0.00 | 67 | 1013.6 |
| 20260904163225 | 90 | 219 | 4.0 | 8.0 | 0.00 | 0.00 | 0.00 | 66 | 1013.5 |
| 20260904162724 | 90 | 224 | 3.0 | 8.0 | 0.00 | 0.00 | 0.00 | 67 | 1013.7 |
| 20260904162219 | 89 | 180 | 3.0 | 9.0 | 0.00 | 0.00 | 0.00 | 67 | 1013.7 |
| 20260904161715 | 89 | 218 | 4.0 | 8.0 | 0.00 | 0.00 | 0.00 | 66 | 1013.6 |
| 20260904161209 | 89 | 231 | 3.0 | 10.0 | 0.00 | 0.00 | 0.00 | 67 | 1013.7 |
| 20260904160705 | 89 | 226 | 5.0 | 8.0 | 0.00 | 0.00 | 0.00 | 69 | 1013.4 |
| 20260904160201 | 88 | 218 | 7.0 | 9.0 | 0.00 | 0.00 | 0.00 | 69 | 1013.6 |
| 20260904155655 | 88 | 193 | 5.0 | 7.0 | 0.00 | 0.00 | 0.00 | 70 | 1013.4 |
| 20260904155155 | 88 | 167 | 7.0 | 11.0 | 0.00 | 0.00 | 0.00 | 69 | 1013.5 |
| 20260904154653 | 88 | 225 | 4.0 | 8.0 | 0.00 | 0.00 | 0.00 | 71 | 1013.5 |
| 20260904154153 | 88 | 196 | 6.0 | 10.0 | 0.00 | 0.00 | 0.00 | 69 | 1013.4 |
| 20260904153648 | 88 | 207 | 5.0 | 10.0 | 0.00 | 0.00 | 0.00 | 69 | 1013.4 |
| 20260904153144 | 88 | 172 | 7.0 | 8.0 | 0.00 | 0.00 | 0.00 | 70 | 1013.3 |
| 20260904152640 | 87 | 208 | 4.0 | 7.0 | 0.00 | 0.00 | 0.00 | 70 | 1013.4 |
| 20260904152136 | 87 | 203 | 6.0 | 7.0 | 0.00 | 0.00 | 0.00 | 71 | 1013.2 |
| 20260904151630 | 87 | 215 | 6.0 | 10.0 | 0.00 | 0.00 | 0.00 | 72 | 1013.3 |
| 20260904151129 | 86 | 209 | 3.0 | 6.0 | 0.00 | 0.00 | 0.00 | 72 | 1013.4 |